Regional Weather Roundup
Issued by NWS Boston, MA

Current Version | Previous Version | Text Only | Print | Product List | Glossary Off
Versions: 1 2 3 4 5 6 7 8 9 10 11 12 13 14 15 16 17 18 19 20 21 22 23 24 25 26 27
000 ASUS41 KBOX 270010 RWRBOX REGIONAL WEATHER ROUNDUP NATIONAL WEATHER SERVICE TAUNTON MA 800 PM EDT SUN MAR 26 2017 NOTE: "FAIR" INDICATES FEW OR NO CLOUDS BELOW 12,000 FEET WITH NO SIGNIFICANT WEATHER AND/OR OBSTRUCTIONS TO VISIBILITY. MAZALL-270100- EASTERN MASSACHUSETTS CITY SKY/WX TMP DP RH WIND PRES REMARKS BOSTON CLOUDY 37 29 72 SE13 30.47F WCI 29 6HR MIN TEMP: 36; 6HR MAX TEMP: 38; 6HR PCP: TRACE; BEVERLY CLOUDY 36 28 73 E7 30.46F WCI 30 LAWRENCE CLOUDY 34 26 72 E5 30.47F WCI 30 BEDFORD CLOUDY 36 26 67 E7 30.44F WCI 30 BLUE HILL N/A 34 25 69 E9 30.41F WCI 27 NORWOOD CLOUDY 39 28 64 E6 30.45F MARSHFIELD N/A 39 30 70 E7 30.46F PLYMOUTH CLOUDY 38 28 67 E8 30.45F TAUNTON CLOUDY 39 26 59 CALM 30.44F NEW BEDFORD CLOUDY 39 29 67 E8 30.44F $$ MAZALL-270100- CAPE COD AND THE ISLANDS CITY SKY/WX TMP DP RH WIND PRES REMARKS FALMOUTH CLOUDY 37 28 70 MISG 30.45F HYANNIS CLOUDY 38 28 67 E7 30.44F CHATHAM CLOUDY 39 28 64 E8 30.46F PROVINCETOWN CLOUDY 38 28 67 E8 30.47F NANTUCKET CLOUDY 39 28 64 E12 30.45S WCI 32 MARTHAS VNYRD LGT RAIN 38 29 70 E10 30.43F WCI 31 $$ MAZALL-270100- CENTRAL AND WESTERN MASSACHUSETTS CITY SKY/WX TMP DP RH WIND PRES REMARKS WORCESTER LGT RAIN 34 26 72 E6 30.39F WCI 29 6HR MIN TEMP: 34; 6HR MAX TEMP: 36; 6HR PCP: TRACE; FITCHBURG CLOUDY 36 27 69 E3 30.44F ORANGE CLOUDY 36 26 67 E5 30.40F SPRINGFIELD CLOUDY 39 31 73 CALM 30.38F WESTFIELD CLOUDY 37 34 89 NE3 30.38F NORTH ADAMS CLOUDY 37 28 70 E13 30.35F WCI 29 PITTSFIELD CLOUDY 33 28 81 E3 30.32F $$ RIZALL-270100- RHODE ISLAND CITY SKY/WX TMP DP RH WIND PRES REMARKS PROVIDENCE CLOUDY 38 27 64 SE6 30.45S 6HR MIN TEMP: 38; 6HR MAX TEMP: 43; 6HR PCP: TRACE; NEWPORT LGT RAIN 37 31 78 E8 30.44S WCI 31 BLOCK ISLAND CLOUDY 38 33 82 E12G20 30.43R WCI 30 SMITHFIELD LGT RAIN 35 32 88 SE5 30.43S WCI 31 WESTERLY CLOUDY 39 31 72 E12 30.43S WCI 32 $$ CTZALL-270100- CONNECTICUT CITY SKY/WX TMP DP RH WIND PRES REMARKS BRADLEY INTL CLOUDY 39 32 76 SE6 30.39F 6HR MIN TEMP: 38; 6HR MAX TEMP: 41; 6HR PCP: TRACE; HARTFORD CLOUDY 39 30 70 SE7 30.40F BRIDGEPORT CLOUDY 40 34 79 E15 30.40S WCI 32 DANBURY CLOUDY 37 32 82 E9 30.38F WCI 30 GROTON CLOUDY 38 31 76 E9 30.41F WCI 31 NEW HAVEN CLOUDY 38 33 82 E13 30.40F WCI 30 CHESTER NOT AVBL MERIDEN CLOUDY 40 29 64 SE6 30.40F WILLIMANTIC CLOUDY 40 30 67 E6 30.42S OXFORD CLOUDY 36 27 69 SE8 30.37F WCI 29 $$ MEZ002-015-021-024-NHZ003-005-008-011-012-014-VTZ005-008-270100- NORTHERN NEW ENGLAND CITY SKY/WX TMP DP RH WIND PRES REMARKS PORTLAND ME CLOUDY 34 22 61 S5 30.49F WCI 30 6HR MIN TEMP: 33; 6HR MAX TEMP: 35; BANGOR ME PTCLDY 30 15 53 S9 30.47S WCI 22 CONCORD NH CLOUDY 34 24 67 SE5 30.44F WCI 30 MANCHESTER NH CLOUDY 35 24 64 SE6 30.44F WCI 30 NASHUA NH CLOUDY 36 27 69 SE8 30.45 WCI 30 PORTSMOUTH NH CLOUDY 35 25 66 E7 30.45F WCI 29 JAFFREY NH NOT AVBL KEENE NH NOT AVBL BURLINGTON VT LGT RAIN 37 28 70 S12 30.31F WCI 29 MT. WASHINGTON FOG 27 27 100 SW23 N/A VSB 1/8 WCI 12 $$ NYZ052-076-270100- EASTERN NEW YORK CITY SKY/WX TMP DP RH WIND PRES REMARKS ALBANY CLOUDY 37 30 75 S6 30.35F 6HR MIN TEMP: 37; 6HR MAX TEMP: 39; 6HR PCP: 0.02; NEW YORK CITY CLOUDY 42 35 76 E15 30.36F 6HR MIN TEMP: 41; 6HR MAX TEMP: 44; $$ ANZALL-270100- MARINE OBSERVATIONS STATION/POSITION TIME TEMP WIND PRES VSBY WAVE AIR SEA DIR/SP/G HT/PER (UTC) (F) (DEG/KT/KT) (MB) (MI) (FT/S) BOSTON BUOY 2350 38 40 100/ 12/ 14 1031.1F 4/ 6 BUZZARDS BAY 2300 37 90/ 9/ 10 1031.6R NANTUCKET SOUND 2350 38 1030.9F 1/ 4 MASS BAY-STELLWA 2304 37 39 110/ 10/ 12 1031.1F 4/ 6 ISLE OF SHOALS 0000 35 120/ 10/ 12 1031.7F S OF BLOCK IS 2355 40 N/A 4/ 5 $$ ......................KEY......................... SKY/WX - SKY CONDITION/PRESENT WEATHER TMP - TEMPERATURE IN FAHRENHEIT DWPT - DEWPOINT IN FAHRENHEIT RH - RELATIVE HUMIDITY IN PERCENT WIND - DIRECTION AND SPEED IN MPH PRES - MEAN SEA LEVEL PRESSURE IN INCHES OF HG WCI - WIND CHILL INDEX VSB - VISIBILITY IN MILES HX - HEAT INDEX TC - TEMPERATURE IN CELSIUS VRB - VARIABLE WIND DIRECTION N/A - NOT AVAILABLE

USA.gov is the U.S. government's official web portal to all federal, state and local government web resources and services.